TITAN 3C TRANSTAGE DEB, 26048

Orbit data source: Space-Track

TITAN 3C TRANSTAGE DEB, 26048 is space debris in HEO originally from a launch on Tue, 21 Dec 1965 UTC launched from the Air Force Eastern Test Range (AFETR). Debris objects in space refer to the collection of defunct objects orbiting the Earth. Examples of debris include non-operational satellites, rocket bodies, and fragments generated from explosions, collisions, or faulty payload assembly.

Loading next visibility...
Identifier
26048, 1965-108AG
Orbit
HEO
Last TLE update
3 days ago
Origin
Manufacturer
Unknown
Mission
Spacecraft
Bus & Motor
Unknown
Mass
Unknown
Launch date (UTC)
1965-12-21 (59 years ago)
Launch vehicle
Unknown
Launch site
Air Force Eastern Test Range (AFETR)
Object type
Payload
Rocket body
Debris
Shape & HBR
Unknown
Radar Cross Section
Medium (>0.1 m² and <1 m²)

Expand to show TLE details & history

TLE from 3 days ago
0 TITAN 3C TRANSTAGE DEB
1 26048U 65108AG  25126.74444600  .00011234  00000-0  51186-2 0  9999
2 26048  26.5692 342.3034 6269325  94.9711 334.2878  3.60748865318661
Epoch: 2025-05-06T17:52Z
Definitive object data (Epoch: 2025-05-06T17:52:00.134Z)
Latitude
0.00001°
Longitude
-150.53262°
Altitude
5,128.162 km
Speed
6.862 km/s
True Right ascension
22h 49m 13s
True Declination
0° 00' 00"
Sunlit
Object was in daylight at TLE epoch
Visualization TLE readout
Latitude
-18.16073°
Longitude
68.70008°
Altitude
10,967.237 km
Speed
4.875 km/s
Apparent Right ascension
12h 43m 19s
Apparent Declination
-37° 24' 48"
Sunlit
Object is in partial shadow
Visualization observer readout
Local Sidereal Time
15:18:06
Azimuth
209.894° SW
Elevation
4.911°
Doppler factor
1
Orbital elements
Apogee altitude
22,844.727 km
Perigee altitude
322.879 km
Semi-major axis
17,961.94 km
Eccentricity
0.6269325
Inclination
26.5692°
RAAN
342.3034°
Arg. of periapsis
94.9711°
True anomaly
264.96205°
Mean anomaly
334.2878°
Eccentric anomaly
304.78698°
Mean motion
0.9016 °/min
BSTAR
0.0051186
Orbital period
399.29 mins
Loading maneuver chart data...
Loading SW <> Apogee altitude chart data...

TITAN 3C TRANSTAGE DEB Visibility forecast

Observer location: undefined°, undefined°

Span
Click to sort rows by Start time (UTC) header in descending order
Start Az.
Max El. time (UTC)
Max El. Az.
Max El.
End time (UTC)
End Az.
216 mins2025-05-09 08:42:09.578Z188.64° SSW2025-05-09 11:49:09.578Z167.079° S15.123°2025-05-09 12:18:09.578Z140.633° SSE
9 mins2025-05-10 02:29:09.578Z188.532° SSW2025-05-10 02:32:09.578Z179.356° S11.008°2025-05-10 02:38:09.578Z167.019° S
|